Wetterdaten: Montag, 31.08.2015
Datum Zeit Temp. A. Feuchte A. Luftdruck Regen Wind Richtung Richtung Sonnenschein ET UV Solar Taupunkt Windchill Windben Empfang
31.08.2015 00:00 20,4 C 76 % 1016,0 hPa 0,0 l/m 0,0 km/h (0 Bft) NO 56 0 min 0,000 mm 0,0 UV-I 0 W/m 16,0 C 20,4 C 0,0 km/h (0 Bft) 0,00 %
31.08.2015 00:05 20,3 C 76 % 1016,1 hPa 0,0 l/m 0,0 km/h (0 Bft) NO 56 0 min 0,000 mm 0,0 UV-I 0 W/m 15,9 C 20,3 C 0,0 km/h (0 Bft) 0,00 %
31.08.2015 00:10 20,2 C 76 % 1016,0 hPa 0,0 l/m 0,0 km/h (0 Bft) NO 56 0 min 0,000 mm 0,0 UV-I 0 W/m 15,8 C 20,2 C 0,0 km/h (0 Bft) 0,00 %
31.08.2015 00:15 20,1 C 77 % 1016,0 hPa 0,0 l/m 0,0 km/h (0 Bft) NO 56 0 min 0,000 mm 0,0 UV-I 0 W/m 15,9 C 20,1 C 0,0 km/h (0 Bft) 0,00 %
31.08.2015 00:20 20,0 C 77 % 1016,0 hPa 0,0 l/m 0,0 km/h (0 Bft) NO 56 0 min 0,000 mm 0,0 UV-I 0 W/m 15,8 C 20,0 C 0,0 km/h (0 Bft) 0,00 %
31.08.2015 00:25 19,9 C 78 % 1016,1 hPa 0,0 l/m 0,0 km/h (0 Bft) NO 56 0 min 0,000 mm 0,0 UV-I 0 W/m 15,9 C 19,9 C 0,0 km/h (0 Bft) 0,00 %
31.08.2015 00:30 19,8 C 79 % 1016,2 hPa 0,0 l/m 0,0 km/h (0 Bft) NO 56 0 min 0,000 mm 0,0 UV-I 0 W/m 16,0 C 19,8 C 0,0 km/h (0 Bft) 0,00 %
31.08.2015 00:35 19,7 C 79 % 1016,1 hPa 0,0 l/m 0,0 km/h (0 Bft) NO 56 0 min 0,000 mm 0,0 UV-I 0 W/m 16,0 C 19,7 C 0,0 km/h (0 Bft) 0,00 %
31.08.2015 00:40 19,6 C 80 % 1016,1 hPa 0,0 l/m 0,0 km/h (0 Bft) NO 56 0 min 0,000 mm 0,0 UV-I 0 W/m 16,1 C 19,6 C 0,0 km/h (0 Bft) 0,00 %
31.08.2015 00:45 19,5 C 80 % 1016,3 hPa 0,0 l/m 0,0 km/h (0 Bft) NO 56 0 min 0,000 mm 0,0 UV-I 0 W/m 16,0 C 19,5 C 0,0 km/h (0 Bft) 0,00 %
31.08.2015 00:50 19,4 C 80 % 1016,2 hPa 0,0 l/m 0,0 km/h (0 Bft) NO 56 0 min 0,000 mm 0,0 UV-I 0 W/m 15,9 C 19,4 C 0,0 km/h (0 Bft) 0,00 %
31.08.2015 00:55 19,4 C 80 % 1016,3 hPa 0,0 l/m 0,0 km/h (0 Bft) NO 56 0 min 0,000 mm 0,0 UV-I 0 W/m 15,9 C 19,4 C 0,0 km/h (0 Bft) 0,00 %
31.08.2015 01:00 19,3 C 80 % 1016,0 hPa 0,0 l/m 0,0 km/h (0 Bft) NO 56 0 min 0,000 mm 0,0 UV-I 0 W/m 15,8 C 19,3 C 0,0 km/h (0 Bft) 0,00 %
31.08.2015 01:05 19,3 C 80 % 1016,1 hPa 0,0 l/m 0,0 km/h (0 Bft) NO 56 0 min 0,000 mm 0,0 UV-I 0 W/m 15,8 C 19,3 C 0,0 km/h (0 Bft) 0,00 %
31.08.2015 01:10 19,2 C 81 % 1016,2 hPa 0,0 l/m 0,0 km/h (0 Bft) NO 56 0 min 0,000 mm 0,0 UV-I 0 W/m 15,9 C 19,2 C 0,0 km/h (0 Bft) 0,00 %
31.08.2015 01:15 19,2 C 81 % 1016,1 hPa 0,0 l/m 0,0 km/h (0 Bft) O-NO 62 0 min 0,000 mm 0,0 UV-I 0 W/m 15,9 C 19,2 C 0,0 km/h (0 Bft) 0,00 %
31.08.2015 01:20 19,2 C 80 % 1016,2 hPa 0,0 l/m 0,0 km/h (0 Bft) O-NO 62 0 min 0,000 mm 0,0 UV-I 0 W/m 15,7 C 19,2 C 0,0 km/h (0 Bft) 0,00 %
31.08.2015 01:25 19,1 C 80 % 1016,1 hPa 0,0 l/m 0,0 km/h (0 Bft) O-NO 62 0 min 0,000 mm 0,0 UV-I 0 W/m 15,6 C 19,1 C 0,0 km/h (0 Bft) 0,00 %
31.08.2015 01:30 19,1 C 80 % 1016,2 hPa 0,0 l/m 0,0 km/h (0 Bft) O-NO 62 0 min 0,000 mm 0,0 UV-I 0 W/m 15,6 C 19,1 C 0,0 km/h (0 Bft) 0,00 %
31.08.2015 01:35 19,1 C 80 % 1016,1 hPa 0,0 l/m 0,0 km/h (0 Bft) O-NO 62 0 min 0,000 mm 0,0 UV-I 0 W/m 15,6 C 19,1 C 0,0 km/h (0 Bft) 0,00 %
31.08.2015 01:40 19,1 C 80 % 1016,1 hPa 0,0 l/m 0,0 km/h (0 Bft) O-NO 62 0 min 0,000 mm 0,0 UV-I 0 W/m 15,6 C 19,1 C 0,0 km/h (0 Bft) 0,00 %
31.08.2015 01:45 19,1 C 82 % 1016,0 hPa 0,0 l/m 0,0 km/h (0 Bft) O-NO 62 0 min 0,000 mm 0,0 UV-I 0 W/m 16,0 C 19,1 C 0,0 km/h (0 Bft) 0,00 %
31.08.2015 01:50 19,0 C 82 % 1016,0 hPa 0,0 l/m 0,0 km/h (0 Bft) O-NO 62 0 min 0,000 mm 0,0 UV-I 0 W/m 15,9 C 19,0 C 0,0 km/h (0 Bft) 0,00 %
31.08.2015 01:55 19,0 C 82 % 1016,0 hPa 0,0 l/m 0,0 km/h (0 Bft) O-NO 62 0 min 0,000 mm 0,0 UV-I 0 W/m 15,9 C 19,0 C 0,0 km/h (0 Bft) 0,00 %
31.08.2015 02:00 18,9 C 82 % 1016,2 hPa 0,0 l/m 0,0 km/h (0 Bft) N-NO 31 0 min 0,000 mm 0,0 UV-I 0 W/m 15,8 C 18,9 C 0,0 km/h (0 Bft) 0,00 %
31.08.2015 02:05 18,8 C 82 % 1016,1 hPa 0,0 l/m 0,0 km/h (0 Bft) NO 52 0 min 0,000 mm 0,0 UV-I 0 W/m 15,7 C 18,8 C 0,0 km/h (0 Bft) 0,00 %
31.08.2015 02:10 18,7 C 82 % 1016,1 hPa 0,0 l/m 0,0 km/h (0 Bft) NO 52 0 min 0,000 mm 0,0 UV-I 0 W/m 15,6 C 18,7 C 0,0 km/h (0 Bft) 0,00 %
31.08.2015 02:15 18,6 C 83 % 1015,9 hPa 0,0 l/m 0,0 km/h (0 Bft) O-NO 60 0 min 0,000 mm 0,0 UV-I 0 W/m 15,7 C 18,6 C 0,0 km/h (0 Bft) 0,00 %
31.08.2015 02:20 18,4 C 83 % 1016,1 hPa 0,0 l/m 0,0 km/h (0 Bft) NO 40 0 min 0,000 mm 0,0 UV-I 0 W/m 15,5 C 18,4 C 0,0 km/h (0 Bft) 0,00 %
31.08.2015 02:25 18,3 C 83 % 1016,0 hPa 0,0 l/m 0,0 km/h (0 Bft) NO 55 0 min 0,000 mm 0,0 UV-I 0 W/m 15,4 C 18,3 C 0,0 km/h (0 Bft) 0,00 %
31.08.2015 02:30 18,2 C 83 % 1016,2 hPa 0,0 l/m 0,0 km/h (0 Bft) O 90 0 min 0,000 mm 0,0 UV-I 0 W/m 15,3 C 18,2 C 0,0 km/h (0 Bft) 0,00 %
31.08.2015 02:35 18,1 C 84 % 1016,0 hPa 0,0 l/m 0,0 km/h (0 Bft) O 90 0 min 0,000 mm 0,0 UV-I 0 W/m 15,4 C 18,1 C 0,0 km/h (0 Bft) 0,00 %
31.08.2015 02:40 18,0 C 85 % 1015,8 hPa 0,0 l/m 0,0 km/h (0 Bft) O 90 0 min 0,000 mm 0,0 UV-I 0 W/m 15,4 C 18,0 C 0,0 km/h (0 Bft) 0,00 %
31.08.2015 02:45 17,9 C 85 % 1015,7 hPa 0,0 l/m 0,0 km/h (0 Bft) O 90 0 min 0,000 mm 0,0 UV-I 0 W/m 15,3 C 17,9 C 0,0 km/h (0 Bft) 0,00 %
31.08.2015 02:50 17,9 C 86 % 1015,8 hPa 0,0 l/m 0,0 km/h (0 Bft) O 90 0 min 0,000 mm 0,0 UV-I 0 W/m 15,5 C 17,9 C 0,0 km/h (0 Bft) 0,00 %
31.08.2015 02:55 17,8 C 86 % 1015,8 hPa 0,0 l/m 0,0 km/h (0 Bft) O 90 0 min 0,000 mm 0,0 UV-I 0 W/m 15,4 C 17,8 C 0,0 km/h (0 Bft) 0,00 %
31.08.2015 03:00 17,7 C 85 % 1015,8 hPa 0,0 l/m 0,0 km/h (0 Bft) O 90 0 min 0,000 mm 0,0 UV-I 0 W/m 15,1 C 17,7 C 0,0 km/h (0 Bft) 0,00 %
31.08.2015 03:05 17,7 C 85 % 1015,7 hPa 0,0 l/m 0,0 km/h (0 Bft) O 90 0 min 0,000 mm 0,0 UV-I 0 W/m 15,1 C 17,7 C 0,0 km/h (0 Bft) 0,00 %
31.08.2015 03:10 17,7 C 85 % 1015,6 hPa 0,0 l/m 0,0 km/h (0 Bft) O 90 0 min 0,000 mm 0,0 UV-I 0 W/m 15,1 C 17,7 C 0,0 km/h (0 Bft) 0,00 %
31.08.2015 03:15 17,6 C 85 % 1015,7 hPa 0,0 l/m 0,0 km/h (0 Bft) O 90 0 min 0,000 mm 0,0 UV-I 0 W/m 15,0 C 17,6 C 0,0 km/h (0 Bft) 0,00 %
31.08.2015 03:20 17,6 C 85 % 1015,5 hPa 0,0 l/m 0,0 km/h (0 Bft) O 90 0 min 0,000 mm 0,0 UV-I 0 W/m 15,0 C 17,6 C 0,0 km/h (0 Bft) 0,00 %
31.08.2015 03:25 17,5 C 85 % 1015,6 hPa 0,0 l/m 0,0 km/h (0 Bft) O 90 0 min 0,000 mm 0,0 UV-I 0 W/m 14,9 C 17,5 C 0,0 km/h (0 Bft) 0,00 %
31.08.2015 03:30 17,3 C 85 % 1015,6 hPa 0,0 l/m 0,0 km/h (0 Bft) O 90 0 min 0,000 mm 0,0 UV-I 0 W/m 14,8 C 17,3 C 0,0 km/h (0 Bft) 0,00 %
31.08.2015 03:35 17,2 C 85 % 1015,4 hPa 0,0 l/m 0,0 km/h (0 Bft) O 90 0 min 0,000 mm 0,0 UV-I 0 W/m 14,7 C 17,2 C 0,0 km/h (0 Bft) 0,00 %
31.08.2015 03:40 17,0 C 85 % 1015,4 hPa 0,0 l/m 0,0 km/h (0 Bft) O 90 0 min 0,000 mm 0,0 UV-I 0 W/m 14,5 C 17,0 C 0,0 km/h (0 Bft) 0,00 %
31.08.2015 03:45 16,9 C 85 % 1015,5 hPa 0,0 l/m 0,0 km/h (0 Bft) O 90 0 min 0,000 mm 0,0 UV-I 0 W/m 14,4 C 16,9 C 0,0 km/h (0 Bft) 0,00 %
31.08.2015 03:50 16,7 C 86 % 1015,4 hPa 0,0 l/m 0,0 km/h (0 Bft) O 90 0 min 0,000 mm 0,0 UV-I 0 W/m 14,3 C 16,7 C 0,0 km/h (0 Bft) 0,00 %
31.08.2015 03:55 16,7 C 86 % 1015,4 hPa 0,0 l/m 0,0 km/h (0 Bft) O 90 0 min 0,000 mm 0,0 UV-I 0 W/m 14,3 C 16,7 C 0,0 km/h (0 Bft) 0,00 %
31.08.2015 04:00 16,6 C 87 % 1015,2 hPa 0,0 l/m 0,0 km/h (0 Bft) O 90 0 min 0,000 mm 0,0 UV-I 0 W/m 14,4 C 16,6 C 0,0 km/h (0 Bft) 0,00 %
31.08.2015 04:05 16,5 C 87 % 1015,3 hPa 0,0 l/m 0,0 km/h (0 Bft) O-NO 62 0 min 0,000 mm 0,0 UV-I 0 W/m 14,3 C 16,5 C 0,0 km/h (0 Bft) 0,00 %
31.08.2015 04:10 16,5 C 86 % 1015,4 hPa 0,0 l/m 0,0 km/h (0 Bft) O-NO 59 0 min 0,000 mm 0,0 UV-I 0 W/m 14,1 C 16,5 C 0,0 km/h (0 Bft) 0,00 %
31.08.2015 04:15 16,5 C 85 % 1015,3 hPa 0,0 l/m 0,0 km/h (0 Bft) NO 49 0 min 0,000 mm 0,0 UV-I 0 W/m 14,0 C 16,5 C 0,0 km/h (0 Bft) 0,00 %
31.08.2015 04:20 16,5 C 85 % 1015,2 hPa 0,0 l/m 0,0 km/h (0 Bft) NO 49 0 min 0,000 mm 0,0 UV-I 0 W/m 14,0 C 16,5 C 0,0 km/h (0 Bft) 0,00 %
31.08.2015 04:25 16,5 C 85 % 1015,2 hPa 0,0 l/m 0,0 km/h (0 Bft) NO 48 0 min 0,000 mm 0,0 UV-I 0 W/m 14,0 C 16,5 C 0,0 km/h (0 Bft) 0,00 %
31.08.2015 04:30 16,3 C 85 % 1015,0 hPa 0,0 l/m 0,0 km/h (0 Bft) NO 47 0 min 0,000 mm 0,0 UV-I 0 W/m 13,8 C 16,3 C 0,0 km/h (0 Bft) 0,00 %
31.08.2015 04:35 16,2 C 86 % 1015,2 hPa 0,0 l/m 0,0 km/h (0 Bft) NO 43 0 min 0,000 mm 0,0 UV-I 0 W/m 13,9 C 16,2 C 0,0 km/h (0 Bft) 0,00 %
31.08.2015 04:40 16,1 C 86 % 1015,0 hPa 0,0 l/m 0,0 km/h (0 Bft) N-NO 21 0 min 0,000 mm 0,0 UV-I 0 W/m 13,8 C 16,1 C 0,0 km/h (0 Bft) 0,00 %
31.08.2015 04:45 16,1 C 86 % 1014,8 hPa 0,0 l/m 0,0 km/h (0 Bft) NO 42 0 min 0,000 mm 0,0 UV-I 0 W/m 13,8 C 16,1 C 0,0 km/h (0 Bft) 0,00 %
31.08.2015 04:50 16,0 C 87 % 1015,1 hPa 0,0 l/m 0,0 km/h (0 Bft) NO 36 0 min 0,000 mm 0,0 UV-I 0 W/m 13,8 C 16,0 C 0,0 km/h (0 Bft) 0,00 %
31.08.2015 04:55 16,0 C 88 % 1015,1 hPa 0,0 l/m 0,0 km/h (0 Bft) NO 36 0 min 0,000 mm 0,0 UV-I 0 W/m 14,0 C 16,0 C 0,0 km/h (0 Bft) 0,00 %
31.08.2015 05:00 15,9 C 89 % 1014,9 hPa 0,0 l/m 0,0 km/h (0 Bft) NO 53 0 min 0,000 mm 0,0 UV-I 0 W/m 14,1 C 15,9 C 0,0 km/h (0 Bft) 0,00 %
31.08.2015 05:05 15,8 C 89 % 1015,0 hPa 0,0 l/m 0,0 km/h (0 Bft) NO 53 0 min 0,000 mm 0,0 UV-I 0 W/m 14,0 C 15,8 C 0,0 km/h (0 Bft) 0,00 %
31.08.2015 05:10 15,8 C 89 % 1015,0 hPa 0,0 l/m 0,0 km/h (0 Bft) NO 53 0 min 0,000 mm 0,0 UV-I 0 W/m 14,0 C 15,8 C 0,0 km/h (0 Bft) 0,00 %
31.08.2015 05:15 15,7 C 89 % 1015,0 hPa 0,0 l/m 0,0 km/h (0 Bft) NO 53 0 min 0,000 mm 0,0 UV-I 0 W/m 13,9 C 15,7 C 0,0 km/h (0 Bft) 0,00 %
31.08.2015 05:20 15,6 C 89 % 1015,1 hPa 0,0 l/m 0,0 km/h (0 Bft) NO 53 0 min 0,000 mm 0,0 UV-I 0 W/m 13,8 C 15,6 C 0,0 km/h (0 Bft) 0,00 %
31.08.2015 05:25 15,5 C 89 % 1014,9 hPa 0,0 l/m 0,0 km/h (0 Bft) NO 53 0 min 0,000 mm 0,0 UV-I 0 W/m 13,7 C 15,5 C 0,0 km/h (0 Bft) 0,00 %
31.08.2015 05:30 15,5 C 89 % 1015,1 hPa 0,0 l/m 0,0 km/h (0 Bft) NO 53 0 min 0,000 mm 0,0 UV-I 0 W/m 13,7 C 15,5 C 0,0 km/h (0 Bft) 0,00 %
31.08.2015 05:35 15,5 C 89 % 1015,2 hPa 0,0 l/m 0,0 km/h (0 Bft) NO 53 0 min 0,000 mm 0,0 UV-I 0 W/m 13,7 C 15,5 C 0,0 km/h (0 Bft) 0,00 %
31.08.2015 05:40 15,4 C 89 % 1015,0 hPa 0,0 l/m 0,0 km/h (0 Bft) NO 40 0 min 0,000 mm 0,0 UV-I 0 W/m 13,6 C 15,4 C 0,0 km/h (0 Bft) 0,00 %
31.08.2015 05:45 15,4 C 89 % 1015,2 hPa 0,0 l/m 0,0 km/h (0 Bft) NO 41 0 min 0,000 mm 0,0 UV-I 0 W/m 13,6 C 15,4 C 0,0 km/h (0 Bft) 0,00 %
31.08.2015 05:50 15,3 C 89 % 1015,4 hPa 0,0 l/m 0,0 km/h (0 Bft) NO 49 0 min 0,000 mm 0,0 UV-I 0 W/m 13,5 C 15,3 C 0,0 km/h (0 Bft) 0,00 %
31.08.2015 05:55 15,3 C 89 % 1014,9 hPa 0,0 l/m 0,0 km/h (0 Bft) NO 49 0 min 0,000 mm 0,0 UV-I 0 W/m 13,5 C 15,3 C 0,0 km/h (0 Bft) 0,00 %
31.08.2015 06:00 15,3 C 90 % 1015,0 hPa 0,0 l/m 0,0 km/h (0 Bft) NO 49 0 min 0,000 mm 0,0 UV-I 0 W/m 13,7 C 15,3 C 0,0 km/h (0 Bft) 0,00 %
31.08.2015 06:05 15,3 C 90 % 1015,0 hPa 0,0 l/m 0,0 km/h (0 Bft) NO 49 0 min 0,000 mm 0,0 UV-I 0 W/m 13,7 C 15,3 C 0,0 km/h (0 Bft) 0,00 %
31.08.2015 06:10 15,3 C 90 % 1015,1 hPa 0,0 l/m 0,0 km/h (0 Bft) NO 49 0 min 0,000 mm 0,0 UV-I 0 W/m 13,7 C 15,3 C 0,0 km/h (0 Bft) 0,00 %
31.08.2015 06:15 15,2 C 90 % 1015,0 hPa 0,0 l/m 0,0 km/h (0 Bft) NO 49 0 min 0,000 mm 0,0 UV-I 0 W/m 13,6 C 15,2 C 0,0 km/h (0 Bft) 0,00 %
31.08.2015 06:20 15,2 C 89 % 1015,0 hPa 0,0 l/m 0,0 km/h (0 Bft) NO 49 0 min 0,000 mm 0,0 UV-I 0 W/m 13,4 C 15,2 C 0,0 km/h (0 Bft) 0,00 %
31.08.2015 06:25 15,2 C 89 % 1014,9 hPa 0,0 l/m 0,0 km/h (0 Bft) NO 49 0 min 0,000 mm 0,0 UV-I 5 W/m 13,4 C 15,2 C 0,0 km/h (0 Bft) 0,00 %
31.08.2015 06:30 15,2 C 89 % 1015,3 hPa 0,0 l/m 0,0 km/h (0 Bft) NO 49 5 min 0,000 mm 0,0 UV-I 11 W/m 13,4 C 15,2 C 0,0 km/h (0 Bft) 0,00 %
31.08.2015 06:35 15,2 C 89 % 1015,1 hPa 0,0 l/m 0,0 km/h (0 Bft) NO 49 5 min 0,000 mm 0,0 UV-I 22 W/m 13,4 C 15,2 C 0,0 km/h (0 Bft) 0,00 %
31.08.2015 06:40 15,2 C 89 % 1015,1 hPa 0,0 l/m 0,0 km/h (0 Bft) NO 49 5 min 0,000 mm 0,0 UV-I 33 W/m 13,4 C 15,2 C 0,0 km/h (0 Bft) 0,00 %
31.08.2015 06:45 15,4 C 88 % 1015,4 hPa 0,0 l/m 0,0 km/h (0 Bft) NO 49 5 min 0,000 mm 0,0 UV-I 46 W/m 13,4 C 15,4 C 0,0 km/h (0 Bft) 0,00 %
31.08.2015 06:50 15,7 C 86 % 1015,6 hPa 0,0 l/m 0,0 km/h (0 Bft) N-NO 29 5 min 0,000 mm 0,0 UV-I 59 W/m 13,4 C 15,7 C 0,0 km/h (0 Bft) 0,00 %
31.08.2015 06:55 16,1 C 84 % 1015,4 hPa 0,0 l/m 0,0 km/h (0 Bft) NO 41 5 min 0,000 mm 0,0 UV-I 71 W/m 13,4 C 16,1 C 0,0 km/h (0 Bft) 0,00 %
31.08.2015 07:00 16,5 C 83 % 1015,3 hPa 0,0 l/m 0,0 km/h (0 Bft) NO 41 5 min 0,000 mm 0,0 UV-I 82 W/m 13,6 C 16,5 C 0,0 km/h (0 Bft) 0,00 %
31.08.2015 07:05 17,0 C 82 % 1015,6 hPa 0,0 l/m 0,0 km/h (0 Bft) NO 43 5 min 0,000 mm 0,0 UV-I 89 W/m 13,9 C 17,0 C 0,0 km/h (0 Bft) 0,00 %
31.08.2015 07:10 17,5 C 78 % 1015,5 hPa 0,0 l/m 0,0 km/h (0 Bft) NO 43 5 min 0,000 mm 0,0 UV-I 96 W/m 13,6 C 17,5 C 0,0 km/h (0 Bft) 0,00 %
31.08.2015 07:15 18,1 C 75 % 1015,7 hPa 0,0 l/m 0,0 km/h (0 Bft) NO 43 5 min 0,000 mm 0,0 UV-I 100 W/m 13,6 C 18,1 C 0,0 km/h (0 Bft) 0,00 %
31.08.2015 07:20 18,7 C 72 % 1015,6 hPa 0,0 l/m 0,0 km/h (0 Bft) NO 42 5 min 0,000 mm 0,0 UV-I 103 W/m 13,5 C 18,7 C 0,0 km/h (0 Bft) 0,00 %
31.08.2015 07:25 19,3 C 70 % 1015,5 hPa 0,0 l/m 0,0 km/h (0 Bft) NO 42 5 min 0,000 mm 0,0 UV-I 105 W/m 13,7 C 19,3 C 0,0 km/h (0 Bft) 0,00 %
31.08.2015 07:30 19,8 C 68 % 1015,5 hPa 0,0 l/m 0,0 km/h (0 Bft) NO 42 5 min 0,000 mm 0,0 UV-I 104 W/m 13,7 C 19,8 C 0,0 km/h (0 Bft) 0,00 %
31.08.2015 07:35 20,3 C 65 % 1015,5 hPa 0,0 l/m 0,0 km/h (0 Bft) NO 42 0 min 0,000 mm 1,0 UV-I 103 W/m 13,5 C 20,3 C 0,0 km/h (0 Bft) 0,00 %
31.08.2015 07:40 20,9 C 62 % 1015,5 hPa 0,0 l/m 0,0 km/h (0 Bft) NO 42 0 min 0,000 mm 1,0 UV-I 104 W/m 13,3 C 20,9 C 0,0 km/h (0 Bft) 0,00 %
31.08.2015 07:45 21,5 C 62 % 1015,7 hPa 0,0 l/m 0,0 km/h (0 Bft) NO 36 0 min 0,000 mm 1,0 UV-I 108 W/m 13,9 C 21,5 C 0,0 km/h (0 Bft) 0,00 %
31.08.2015 07:50 22,1 C 60 % 1015,6 hPa 0,0 l/m 0,0 km/h (0 Bft) NO 36 0 min 0,000 mm 1,0 UV-I 112 W/m 14,0 C 22,1 C 0,0 km/h (0 Bft) 0,00 %
31.08.2015 07:55 22,5 C 58 % 1015,7 hPa 0,0 l/m 0,0 km/h (0 Bft) N-NO 32 0 min 0,000 mm 1,0 UV-I 116 W/m 13,8 C 22,5 C 0,0 km/h (0 Bft) 0,00 %
31.08.2015 08:00 22,7 C 59 % 1015,7 hPa 0,0 l/m 0,0 km/h (0 Bft) N-NO 32 0 min 0,000 mm 1,0 UV-I 120 W/m 14,3 C 22,7 C 0,0 km/h (0 Bft) 0,00 %
31.08.2015 08:05 22,9 C 55 % 1015,7 hPa 0,0 l/m 0,0 km/h (0 Bft) NO 34 0 min 0,000 mm 1,0 UV-I 125 W/m 13,4 C 22,9 C 0,0 km/h (0 Bft) 0,00 %
31.08.2015 08:10 23,4 C 53 % 1015,8 hPa 0,0 l/m 0,0 km/h (0 Bft) NO 34 0 min 0,000 mm 1,0 UV-I 131 W/m 13,3 C 23,4 C 0,0 km/h (0 Bft) 0,00 %
31.08.2015 08:15 24,0 C 52 % 1015,7 hPa 0,0 l/m 0,0 km/h (0 Bft) N 9 0 min 0,000 mm 1,0 UV-I 138 W/m 13,5 C 24,0 C 0,0 km/h (0 Bft) 0,00 %
31.08.2015 08:20 24,5 C 53 % 1015,7 hPa 0,0 l/m 0,0 km/h (0 Bft) N-NO 27 0 min 0,000 mm 1,0 UV-I 144 W/m 14,3 C 24,5 C 0,0 km/h (0 Bft) 0,00 %
31.08.2015 08:25 24,7 C 50 % 1015,9 hPa 0,0 l/m 0,0 km/h (0 Bft) NO 36 0 min 0,000 mm 1,0 UV-I 151 W/m 13,6 C 24,7 C 0,0 km/h (0 Bft) 0,00 %
31.08.2015 08:30 25,1 C 49 % 1015,9 hPa 0,0 l/m 0,0 km/h (0 Bft) N-NO 24 0 min 0,000 mm 1,0 UV-I 160 W/m 13,6 C 25,1 C 0,0 km/h (0 Bft) 0,00 %
31.08.2015 08:35 25,4 C 50 % 1015,7 hPa 0,0 l/m 0,0 km/h (0 Bft) NO 53 0 min 0,000 mm 1,0 UV-I 168 W/m 14,2 C 25,4 C 0,0 km/h (0 Bft) 0,00 %
31.08.2015 08:40 25,6 C 49 % 1016,0 hPa 0,0 l/m 0,0 km/h (0 Bft) NO 36 0 min 0,000 mm 1,0 UV-I 176 W/m 14,1 C 25,6 C 0,0 km/h (0 Bft) 0,00 %
31.08.2015 08:45 25,7 C 49 % 1015,8 hPa 0,0 l/m 0,0 km/h (0 Bft) N-NO 28 0 min 0,000 mm 1,0 UV-I 185 W/m 14,2 C 25,7 C 0,0 km/h (0 Bft) 0,00 %
31.08.2015 08:50 25,8 C 47 % 1015,9 hPa 0,0 l/m 0,0 km/h (0 Bft) N 354 0 min 0,000 mm 1,0 UV-I 194 W/m 13,6 C 25,8 C 0,0 km/h (0 Bft) 0,00 %
31.08.2015 08:55 25,9 C 45 % 1015,9 hPa 0,0 l/m 0,0 km/h (0 Bft) NO 46 0 min 0,000 mm 1,0 UV-I 203 W/m 13,0 C 25,9 C 0,0 km/h (0 Bft) 0,00 %
31.08.2015 09:00 26,2 C 45 % 1015,8 hPa 0,0 l/m 0,0 km/h (0 Bft) N-NO 25 0 min 0,000 mm 1,0 UV-I 212 W/m 13,3 C 26,2 C 0,0 km/h (0 Bft) 0,00 %
31.08.2015 09:05 26,4 C 45 % 1015,8 hPa 0,0 l/m 0,0 km/h (0 Bft) N-NW 346 0 min 0,000 mm 1,0 UV-I 222 W/m 13,5 C 26,4 C 0,0 km/h (0 Bft) 0,00 %
31.08.2015 09:10 26,6 C 45 % 1015,7 hPa 0,0 l/m 0,0 km/h (0 Bft) NO 46 0 min 0,000 mm 1,0 UV-I 233 W/m 13,7 C 26,6 C 0,0 km/h (0 Bft) 0,00 %
31.08.2015 09:15 26,9 C 45 % 1015,7 hPa 0,0 l/m 0,0 km/h (0 Bft) N-NW 335 0 min 0,000 mm 1,0 UV-I 243 W/m 13,9 C 26,9 C 0,0 km/h (0 Bft) 0,00 %
31.08.2015 09:20 27,1 C 45 % 1015,7 hPa 0,0 l/m 0,0 km/h (0 Bft) N 352 0 min 0,000 mm 1,0 UV-I 251 W/m 14,1 C 27,1 C 0,0 km/h (0 Bft) 0,00 %
31.08.2015 09:25 27,1 C 45 % 1015,7 hPa 0,0 l/m 0,0 km/h (0 Bft) N 351 0 min 0,000 mm 1,0 UV-I 263 W/m 14,1 C 27,1 C 0,0 km/h (0 Bft) 0,00 %
31.08.2015 09:30 27,0 C 45 % 1015,7 hPa 0,0 l/m 0,0 km/h (0 Bft) NO 48 0 min 0,000 mm 1,0 UV-I 274 W/m 14,0 C 27,0 C 0,0 km/h (0 Bft) 0,00 %
31.08.2015 09:35 27,1 C 46 % 1015,4 hPa 0,0 l/m 0,0 km/h (0 Bft) NO 45 5 min 0,000 mm 1,0 UV-I 289 W/m 14,5 C 27,1 C 0,0 km/h (0 Bft) 0,00 %
31.08.2015 09:40 27,4 C 44 % 1015,7 hPa 0,0 l/m 0,0 km/h (0 Bft) NO 38 5 min 0,000 mm 1,0 UV-I 300 W/m 14,0 C 27,4 C 0,0 km/h (0 Bft) 0,00 %
31.08.2015 09:45 27,7 C 44 % 1015,5 hPa 0,0 l/m 0,0 km/h (0 Bft) O-NO 76 0 min 0,000 mm 1,0 UV-I 152 W/m 14,3 C 27,7 C 0,0 km/h (0 Bft) 0,00 %
31.08.2015 09:50 27,7 C 46 % 1015,3 hPa 0,0 l/m 0,0 km/h (0 Bft) N 351 0 min 0,000 mm 1,0 UV-I 174 W/m 15,0 C 27,7 C 0,0 km/h (0 Bft) 0,00 %
31.08.2015 09:55 27,4 C 45 % 1015,4 hPa 0,0 l/m 0,0 km/h (0 Bft) O-NO 60 5 min 0,000 mm 2,0 UV-I 328 W/m 14,4 C 27,4 C 0,0 km/h (0 Bft) 0,00 %
31.08.2015 10:00 27,4 C 44 % 1015,4 hPa 0,0 l/m 0,0 km/h (0 Bft) NO 37 5 min 0,000 mm 2,0 UV-I 345 W/m 14,0 C 27,4 C 0,0 km/h (0 Bft) 0,00 %
31.08.2015 10:05 27,7 C 43 % 1015,7 hPa 0,0 l/m 0,0 km/h (0 Bft) NO 54 5 min 0,000 mm 2,0 UV-I 361 W/m 14,0 C 27,7 C 0,0 km/h (0 Bft) 0,00 %
31.08.2015 10:10 28,1 C 42 % 1015,4 hPa 0,0 l/m 0,0 km/h (0 Bft) N-NO 21 5 min 0,000 mm 2,0 UV-I 375 W/m 14,0 C 28,1 C 0,0 km/h (0 Bft) 0,00 %
31.08.2015 10:15 28,4 C 42 % 1015,2 hPa 0,0 l/m 0,0 km/h (0 Bft) N-NO 15 5 min 0,000 mm 2,0 UV-I 391 W/m 14,2 C 28,4 C 0,0 km/h (0 Bft) 0,00 %
31.08.2015 10:20 28,5 C 41 % 1015,3 hPa 0,0 l/m 0,0 km/h (0 Bft) N-NW 348 5 min 0,000 mm 2,0 UV-I 404 W/m 13,9 C 28,5 C 0,0 km/h (0 Bft) 0,00 %
31.08.2015 10:25 28,7 C 41 % 1015,3 hPa 0,0 l/m 0,0 km/h (0 Bft) NW 319 5 min 0,000 mm 2,0 UV-I 421 W/m 14,1 C 28,7 C 0,0 km/h (0 Bft) 0,00 %
31.08.2015 10:30 29,0 C 40 % 1015,0 hPa 0,0 l/m 0,0 km/h (0 Bft) N-NW 343 5 min 0,000 mm 2,0 UV-I 435 W/m 14,0 C 29,0 C 0,0 km/h (0 Bft) 0,00 %
31.08.2015 10:35 29,2 C 40 % 1015,1 hPa 0,0 l/m 0,0 km/h (0 Bft) N 353 5 min 0,000 mm 2,0 UV-I 449 W/m 14,2 C 29,2 C 0,0 km/h (0 Bft) 0,00 %
31.08.2015 10:40 29,4 C 40 % 1015,1 hPa 0,0 l/m 0,0 km/h (0 Bft) W-NW 294 5 min 0,000 mm 2,0 UV-I 463 W/m 14,4 C 29,4 C 0,0 km/h (0 Bft) 0,00 %
31.08.2015 10:45 29,8 C 39 % 1015,1 hPa 0,0 l/m 0,0 km/h (0 Bft) NO 47 5 min 0,000 mm 2,0 UV-I 478 W/m 14,3 C 29,8 C 0,0 km/h (0 Bft) 0,00 %
31.08.2015 10:50 30,1 C 39 % 1015,0 hPa 0,0 l/m 0,0 km/h (0 Bft) NO 46 5 min 0,000 mm 2,0 UV-I 495 W/m 14,6 C 30,1 C 0,0 km/h (0 Bft) 0,00 %
31.08.2015 10:55 30,3 C 39 % 1015,1 hPa 0,0 l/m 0,0 km/h (0 Bft) NO 38 5 min 0,000 mm 2,0 UV-I 509 W/m 14,8 C 30,3 C 0,0 km/h (0 Bft) 0,00 %
31.08.2015 11:00 30,6 C 39 % 1015,0 hPa 0,0 l/m 0,0 km/h (0 Bft) NO 35 5 min 0,000 mm 2,0 UV-I 528 W/m 15,0 C 30,6 C 0,0 km/h (0 Bft) 0,00 %
31.08.2015 11:05 30,8 C 40 % 1015,0 hPa 0,0 l/m 0,0 km/h (0 Bft) N-NO 29 5 min 0,000 mm 2,0 UV-I 542 W/m 15,6 C 30,8 C 0,0 km/h (0 Bft) 0,00 %
31.08.2015 11:10 30,8 C 38 % 1015,0 hPa 0,0 l/m 0,0 km/h (0 Bft) O-NO 60 5 min 0,000 mm 2,0 UV-I 559 W/m 14,8 C 30,8 C 0,0 km/h (0 Bft) 0,00 %
31.08.2015 11:15 31,2 C 38 % 1014,9 hPa 0,0 l/m 0,0 km/h (0 Bft) NO 36 5 min 0,000 mm 2,0 UV-I 575 W/m 15,2 C 31,2 C 0,0 km/h (0 Bft) 0,00 %
31.08.2015 11:20 31,4 C 38 % 1014,8 hPa 0,0 l/m 0,0 km/h (0 Bft) O-SO 109 5 min 0,000 mm 2,0 UV-I 590 W/m 15,3 C 31,4 C 0,0 km/h (0 Bft) 0,00 %
31.08.2015 11:25 31,5 C 37 % 1014,7 hPa 0,0 l/m 0,0 km/h (0 Bft) NO 46 5 min 0,000 mm 2,0 UV-I 601 W/m 15,0 C 31,5 C 0,0 km/h (0 Bft) 0,00 %
31.08.2015 11:30 31,5 C 38 % 1014,7 hPa 0,0 l/m 0,4 km/h (0 Bft) N 10 5 min 0,000 mm 2,0 UV-I 614 W/m 15,4 C 31,5 C 4,0 km/h (1 Bft) 0,00 %
31.08.2015 11:35 31,4 C 38 % 1014,7 hPa 0,0 l/m 4,3 km/h (1 Bft) NW 324 5 min 0,000 mm 3,0 UV-I 631 W/m 15,3 C 31,4 C 7,9 km/h (2 Bft) 0,00 %
31.08.2015 11:40 31,4 C 38 % 1014,6 hPa 0,0 l/m 0,0 km/h (0 Bft) N-NO 24 5 min 0,000 mm 3,0 UV-I 649 W/m 15,3 C 31,4 C 0,0 km/h (0 Bft) 0,00 %
31.08.2015 11:45 31,8 C 38 % 1014,6 hPa 0,0 l/m 2,9 km/h (1 Bft) W-SW 257 5 min 0,000 mm 3,0 UV-I 674 W/m 15,7 C 31,8 C 4,0 km/h (1 Bft) 0,00 %
31.08.2015 11:50 32,2 C 36 % 1014,7 hPa 0,0 l/m 0,0 km/h (0 Bft) NO 41 5 min 0,000 mm 3,0 UV-I 688 W/m 15,2 C 32,2 C 0,0 km/h (0 Bft) 0,00 %
31.08.2015 11:55 32,4 C 37 % 1014,6 hPa 0,0 l/m 0,0 km/h (0 Bft) N-NO 18 5 min 0,000 mm 3,0 UV-I 705 W/m 15,8 C 32,4 C 0,0 km/h (0 Bft) 0,00 %
31.08.2015 12:00 32,5 C 36 % 1014,5 hPa 0,0 l/m 1,8 km/h (1 Bft) W-NW 296 5 min 0,000 mm 3,0 UV-I 717 W/m 15,5 C 32,5 C 4,0 km/h (1 Bft) 0,00 %
31.08.2015 12:05 32,5 C 36 % 1014,4 hPa 0,0 l/m 0,0 km/h (0 Bft) O-NO 60 5 min 0,000 mm 3,0 UV-I 728 W/m 15,5 C 32,5 C 0,0 km/h (0 Bft) 0,00 %
31.08.2015 12:10 32,5 C 36 % 1014,4 hPa 0,0 l/m 0,0 km/h (0 Bft) O-NO 64 5 min 0,000 mm 3,0 UV-I 741 W/m 15,5 C 32,5 C 0,0 km/h (0 Bft) 0,00 %
31.08.2015 12:15 32,7 C 35 % 1014,2 hPa 0,0 l/m 0,7 km/h (0 Bft) W-NW 291 5 min 0,000 mm 3,0 UV-I 754 W/m 15,2 C 32,7 C 4,0 km/h (1 Bft) 0,00 %
31.08.2015 12:20 32,8 C 36 % 1014,4 hPa 0,0 l/m 0,0 km/h (0 Bft) N-NW 342 5 min 0,000 mm 3,0 UV-I 754 W/m 15,7 C 32,8 C 0,0 km/h (0 Bft) 0,00 %
31.08.2015 12:25 32,8 C 36 % 1014,2 hPa 0,0 l/m 1,4 km/h (1 Bft) N-NW 335 5 min 0,000 mm 3,0 UV-I 761 W/m 15,7 C 32,8 C 4,0 km/h (1 Bft) 0,00 %
31.08.2015 12:30 32,6 C 36 % 1014,3 hPa 0,0 l/m 0,0 km/h (0 Bft) NO 46 5 min 0,000 mm 3,0 UV-I 772 W/m 15,6 C 32,6 C 0,0 km/h (0 Bft) 0,00 %
31.08.2015 12:35 32,7 C 36 % 1014,1 hPa 0,0 l/m 0,4 km/h (0 Bft) N-NO 32 5 min 0,000 mm 3,0 UV-I 776 W/m 15,6 C 32,7 C 4,0 km/h (1 Bft) 0,00 %
31.08.2015 12:40 32,8 C 34 % 1014,1 hPa 0,0 l/m 0,0 km/h (0 Bft) NO 37 5 min 0,000 mm 3,0 UV-I 774 W/m 14,8 C 32,8 C 0,0 km/h (0 Bft) 0,00 %
31.08.2015 12:45 32,8 C 34 % 1014,0 hPa 0,0 l/m 2,2 km/h (1 Bft) N-NW 348 5 min 0,000 mm 3,0 UV-I 783 W/m 14,8 C 32,8 C 4,0 km/h (1 Bft) 0,00 %
31.08.2015 12:50 32,7 C 34 % 1013,9 hPa 0,0 l/m 0,7 km/h (0 Bft) N-NW 336 5 min 0,000 mm 3,0 UV-I 782 W/m 14,8 C 32,7 C 4,0 km/h (1 Bft) 0,00 %
31.08.2015 12:55 32,6 C 35 % 1013,7 hPa 0,0 l/m 0,0 km/h (0 Bft) N-NO 30 5 min 0,000 mm 3,0 UV-I 784 W/m 15,1 C 32,6 C 0,0 km/h (0 Bft) 0,00 %
31.08.2015 13:00 32,5 C 34 % 1013,9 hPa 0,0 l/m 0,0 km/h (0 Bft) NO 56 5 min 0,000 mm 3,0 UV-I 793 W/m 14,6 C 32,5 C 0,0 km/h (0 Bft) 0,00 %
31.08.2015 13:05 32,5 C 35 % 1013,7 hPa 0,0 l/m 3,2 km/h (1 Bft) O-NO 64 5 min 0,000 mm 3,0 UV-I 796 W/m 15,0 C 32,5 C 4,0 km/h (1 Bft) 0,00 %
31.08.2015 13:10 32,5 C 35 % 1013,6 hPa 0,0 l/m 3,2 km/h (1 Bft) N-NW 331 5 min 0,000 mm 3,0 UV-I 806 W/m 15,0 C 32,5 C 7,9 km/h (2 Bft) 0,00 %
31.08.2015 13:15 32,5 C 35 % 1013,8 hPa 0,0 l/m 0,4 km/h (0 Bft) N 356 5 min 0,000 mm 3,0 UV-I 807 W/m 15,0 C 32,5 C 4,0 km/h (1 Bft) 0,00 %
31.08.2015 13:20 32,7 C 33 % 1013,8 hPa 0,0 l/m 3,2 km/h (1 Bft) W 262 5 min 0,000 mm 3,0 UV-I 820 W/m 14,3 C 32,7 C 4,0 km/h (1 Bft) 0,00 %
31.08.2015 13:25 32,9 C 33 % 1013,6 hPa 0,0 l/m 0,0 km/h (0 Bft) NO 46 5 min 0,000 mm 3,0 UV-I 822 W/m 14,5 C 32,9 C 0,0 km/h (0 Bft) 0,00 %
31.08.2015 13:30 33,0 C 32 % 1013,4 hPa 0,0 l/m 0,0 km/h (0 Bft) O-NO 59 5 min 0,000 mm 3,0 UV-I 825 W/m 14,1 C 33,0 C 0,0 km/h (0 Bft) 0,00 %
31.08.2015 13:35 33,1 C 32 % 1013,3 hPa 0,0 l/m 0,7 km/h (0 Bft) O 98 5 min 0,000 mm 3,0 UV-I 837 W/m 14,2 C 33,1 C 4,0 km/h (1 Bft) 0,00 %
31.08.2015 13:40 33,1 C 32 % 1013,4 hPa 0,0 l/m 0,0 km/h (0 Bft) NO 48 5 min 0,000 mm 3,0 UV-I 846 W/m 14,2 C 33,1 C 0,0 km/h (0 Bft) 0,00 %
31.08.2015 13:45 33,2 C 32 % 1013,2 hPa 0,0 l/m 0,4 km/h (0 Bft) O 98 5 min 0,000 mm 3,0 UV-I 847 W/m 14,2 C 33,2 C 4,0 km/h (1 Bft) 0,00 %
31.08.2015 13:50 33,5 C 30 % 1013,1 hPa 0,0 l/m 5,4 km/h (1 Bft) W 275 5 min 0,000 mm 3,0 UV-I 853 W/m 13,5 C 33,5 C 7,9 km/h (2 Bft) 0,00 %
31.08.2015 13:55 33,9 C 29 % 1013,1 hPa 0,0 l/m 2,2 km/h (1 Bft) NW 316 5 min 0,000 mm 3,0 UV-I 848 W/m 13,3 C 33,9 C 4,0 km/h (1 Bft) 0,00 %
31.08.2015 14:00 34,1 C 30 % 1012,8 hPa 0,0 l/m 0,4 km/h (0 Bft) N 352 5 min 0,000 mm 3,0 UV-I 848 W/m 14,0 C 34,1 C 4,0 km/h (1 Bft) 0,00 %
31.08.2015 14:05 34,2 C 30 % 1012,6 hPa 0,0 l/m 1,4 km/h (1 Bft) NO 36 5 min 0,000 mm 3,0 UV-I 852 W/m 14,1 C 34,2 C 4,0 km/h (1 Bft) 0,00 %
31.08.2015 14:10 34,1 C 31 % 1012,8 hPa 0,0 l/m 0,0 km/h (0 Bft) N-NW 345 5 min 0,000 mm 3,0 UV-I 847 W/m 14,5 C 34,1 C 0,0 km/h (0 Bft) 0,00 %
31.08.2015 14:16 33,9 C 31 % 1012,6 hPa 0,0 l/m 0,0 km/h (0 Bft) N-NO 13 6 min 0,000 mm 3,0 UV-I 856 W/m 14,4 C 33,9 C 0,0 km/h (0 Bft) 0,00 %
31.08.2015 14:21 33,9 C 30 % 1012,5 hPa 0,0 l/m 0,0 km/h (0 Bft) N 353 5 min 0,000 mm 3,0 UV-I 859 W/m 13,9 C 33,9 C 0,0 km/h (0 Bft) 0,00 %
31.08.2015 14:26 34,2 C 29 % 1012,5 hPa 0,0 l/m 1,4 km/h (1 Bft) S 188 5 min 0,000 mm 3,0 UV-I 862 W/m 13,6 C 34,2 C 4,0 km/h (1 Bft) 0,00 %
31.08.2015 14:31 34,5 C 29 % 1012,3 hPa 0,0 l/m 1,8 km/h (1 Bft) N-NW 342 5 min 0,000 mm 3,0 UV-I 874 W/m 13,8 C 34,5 C 4,0 km/h (1 Bft) 0,00 %
31.08.2015 14:36 34,8 C 27 % 1012,3 hPa 0,0 l/m 0,7 km/h (0 Bft) NO 36 5 min 0,000 mm 2,0 UV-I 865 W/m 13,0 C 34,8 C 4,0 km/h (1 Bft) 0,00 %
31.08.2015 14:41 34,9 C 29 % 1012,3 hPa 0,0 l/m 0,4 km/h (0 Bft) N-NO 29 5 min 0,000 mm 2,0 UV-I 861 W/m 14,2 C 34,9 C 4,0 km/h (1 Bft) 0,00 %
31.08.2015 14:46 35,0 C 27 % 1012,3 hPa 0,0 l/m 0,7 km/h (0 Bft) N-NW 333 5 min 0,000 mm 2,0 UV-I 871 W/m 13,2 C 35,0 C 4,0 km/h (1 Bft) 0,00 %
31.08.2015 14:51 35,2 C 27 % 1012,2 hPa 0,0 l/m 0,0 km/h (0 Bft) O-NO 70 5 min 0,000 mm 2,0 UV-I 871 W/m 13,3 C 35,2 C 0,0 km/h (0 Bft) 0,00 %
31.08.2015 14:56 35,4 C 26 % 1012,3 hPa 0,0 l/m 0,0 km/h (0 Bft) O-NO 70 5 min 0,000 mm 2,0 UV-I 874 W/m 12,9 C 35,4 C 0,0 km/h (0 Bft) 0,00 %
31.08.2015 15:01 35,2 C 27 % 1012,1 hPa 0,0 l/m 0,0 km/h (0 Bft) N 349 5 min 0,000 mm 2,0 UV-I 874 W/m 13,3 C 35,2 C 0,0 km/h (0 Bft) 0,00 %
31.08.2015 15:06 35,1 C 27 % 1011,9 hPa 0,0 l/m 4,7 km/h (1 Bft) W 265 5 min 0,000 mm 1,0 UV-I 860 W/m 13,3 C 35,1 C 7,9 km/h (2 Bft) 0,00 %
31.08.2015 15:11 35,3 C 25 % 1011,8 hPa 0,0 l/m 0,0 km/h (0 Bft) NO 45 5 min 0,000 mm 1,0 UV-I 857 W/m 12,2 C 35,3 C 0,0 km/h (0 Bft) 0,00 %
31.08.2015 15:16 35,5 C 27 % 1011,7 hPa 0,0 l/m 0,0 km/h (0 Bft) NO 48 5 min 0,000 mm 1,0 UV-I 862 W/m 13,6 C 35,5 C 0,0 km/h (0 Bft) 0,00 %
31.08.2015 15:21 35,5 C 25 % 1011,6 hPa 0,0 l/m 0,0 km/h (0 Bft) N 350 5 min 0,000 mm 1,0 UV-I 863 W/m 12,4 C 35,5 C 0,0 km/h (0 Bft) 0,00 %
31.08.2015 15:26 35,5 C 25 % 1011,7 hPa 0,0 l/m 0,4 km/h (0 Bft) N 7 5 min 0,000 mm 1,0 UV-I 859 W/m 12,4 C 35,5 C 4,0 km/h (1 Bft) 0,00 %
31.08.2015 15:31 35,3 C 26 % 1011,4 hPa 0,0 l/m 0,0 km/h (0 Bft) N-NW 344 5 min 0,000 mm 1,0 UV-I 852 W/m 12,8 C 35,3 C 0,0 km/h (0 Bft) 0,00 %
31.08.2015 15:36 34,8 C 28 % 1011,4 hPa 0,0 l/m 4,3 km/h (1 Bft) NO 36 5 min 0,000 mm 1,0 UV-I 849 W/m 13,6 C 34,8 C 7,9 km/h (2 Bft) 0,00 %
31.08.2015 15:41 34,3 C 27 % 1011,4 hPa 0,0 l/m 0,0 km/h (0 Bft) NO 44 5 min 0,000 mm 1,0 UV-I 836 W/m 12,6 C 34,3 C 0,0 km/h (0 Bft) 0,00 %
31.08.2015 15:46 34,1 C 27 % 1011,2 hPa 0,0 l/m 3,2 km/h (1 Bft) N-NO 15 5 min 0,000 mm 1,0 UV-I 829 W/m 12,4 C 34,1 C 4,0 km/h (1 Bft) 0,00 %
31.08.2015 15:51 34,0 C 27 % 1011,1 hPa 0,0 l/m 0,0 km/h (0 Bft) NO 35 5 min 0,000 mm 1,0 UV-I 807 W/m 12,3 C 34,0 C 0,0 km/h (0 Bft) 0,00 %
31.08.2015 15:56 33,9 C 26 % 1010,8 hPa 0,0 l/m 1,8 km/h (1 Bft) N-NO 18 5 min 0,000 mm 1,0 UV-I 800 W/m 11,7 C 33,9 C 4,0 km/h (1 Bft) 0,00 %
31.08.2015 16:01 33,7 C 27 % 1011,0 hPa 0,0 l/m 0,0 km/h (0 Bft) N-NO 24 5 min 0,000 mm 1,0 UV-I 752 W/m 12,1 C 33,7 C 0,0 km/h (0 Bft) 0,00 %
31.08.2015 16:06 33,6 C 26 % 1010,7 hPa 0,0 l/m 1,8 km/h (1 Bft) O-NO 67 5 min 0,000 mm 1,0 UV-I 339 W/m 11,4 C 33,6 C 4,0 km/h (1 Bft) 0,00 %
31.08.2015 16:11 33,3 C 24 % 1010,6 hPa 0,0 l/m 0,0 km/h (0 Bft) O-NO 67 0 min 0,000 mm 1,0 UV-I 185 W/m 10,0 C 33,3 C 0,0 km/h (0 Bft) 0,00 %
31.08.2015 16:16 33,2 C 23 % 1010,6 hPa 0,0 l/m 1,4 km/h (1 Bft) O-NO 64 0 min 0,000 mm 1,0 UV-I 185 W/m 9,2 C 33,2 C 4,0 km/h (1 Bft) 0,00 %
31.08.2015 16:21 33,2 C 25 % 1010,5 hPa 0,0 l/m 1,8 km/h (1 Bft) O 84 0 min 0,000 mm 1,0 UV-I 185 W/m 10,5 C 33,2 C 4,0 km/h (1 Bft) 0,00 %
31.08.2015 16:26 33,1 C 22 % 1010,6 hPa 0,0 l/m 0,0 km/h (0 Bft) NO 53 0 min 0,000 mm 1,0 UV-I 186 W/m 8,5 C 33,1 C 0,0 km/h (0 Bft) 0,00 %
31.08.2015 16:31 33,1 C 21 % 1010,4 hPa 0,0 l/m 0,0 km/h (0 Bft) NO 53 0 min 0,000 mm 1,0 UV-I 185 W/m 7,8 C 33,1 C 0,0 km/h (0 Bft) 0,00 %
31.08.2015 16:36 33,1 C 22 % 1010,3 hPa 0,0 l/m 0,0 km/h (0 Bft) O-NO 59 0 min 0,000 mm 1,0 UV-I 187 W/m 8,5 C 33,1 C 0,0 km/h (0 Bft) 0,00 %
31.08.2015 16:41 33,2 C 23 % 1010,5 hPa 0,0 l/m 5,8 km/h (2 Bft) O-SO 109 0 min 0,000 mm 1,0 UV-I 188 W/m 9,2 C 33,2 C 7,9 km/h (2 Bft) 0,00 %
31.08.2015 16:46 33,1 C 21 % 1010,4 hPa 0,0 l/m 0,0 km/h (0 Bft) NO 54 0 min 0,000 mm 1,0 UV-I 186 W/m 7,8 C 33,1 C 0,0 km/h (0 Bft) 0,00 %
31.08.2015 16:51 33,0 C 42 % 1010,3 hPa 0,0 l/m 0,4 km/h (0 Bft) NO 49 0 min 0,000 mm 1,0 UV-I 187 W/m 18,3 C 33,0 C 4,0 km/h (1 Bft) 0,00 %
31.08.2015 16:56 31,0 C 44 % 1010,3 hPa 0,0 l/m 0,4 km/h (0 Bft) N 350 0 min 0,000 mm 1,0 UV-I 197 W/m 17,3 C 31,0 C 4,0 km/h (1 Bft) 0,00 %
31.08.2015 17:01 27,8 C 48 % 1010,0 hPa 0,0 l/m 0,7 km/h (0 Bft) NO 35 0 min 0,000 mm 1,0 UV-I 200 W/m 15,8 C 27,8 C 4,0 km/h (1 Bft) 0,00 %
31.08.2015 17:06 26,3 C 44 % 1010,1 hPa 0,0 l/m 0,0 km/h (0 Bft) N 350 5 min 0,000 mm 1,0 UV-I 259 W/m 13,1 C 26,3 C 0,0 km/h (0 Bft) 0,00 %
31.08.2015 17:11 26,3 C 38 % 1010,0 hPa 0,0 l/m 0,0 km/h (0 Bft) N-NO 29 5 min 0,000 mm 1,0 UV-I 690 W/m 10,8 C 26,3 C 0,0 km/h (0 Bft) 0,00 %
31.08.2015 17:16 26,8 C 47 % 1009,7 hPa 0,0 l/m 0,0 km/h (0 Bft) O-NO 63 5 min 0,000 mm 1,0 UV-I 691 W/m 14,5 C 26,8 C 0,0 km/h (0 Bft) 0,00 %
31.08.2015 17:21 27,2 C 41 % 1009,9 hPa 0,0 l/m 0,0 km/h (0 Bft) N-NO 28 5 min 0,000 mm 1,0 UV-I 690 W/m 12,8 C 27,2 C 0,0 km/h (0 Bft) 0,00 %
31.08.2015 17:26 27,7 C 38 % 1009,8 hPa 0,0 l/m 0,0 km/h (0 Bft) NO 45 5 min 0,000 mm 1,0 UV-I 678 W/m 12,1 C 27,7 C 0,0 km/h (0 Bft) 0,00 %
31.08.2015 17:31 28,4 C 38 % 1009,8 hPa 0,0 l/m 0,0 km/h (0 Bft) NO 41 5 min 0,000 mm 1,0 UV-I 661 W/m 12,7 C 28,4 C 0,0 km/h (0 Bft) 0,00 %
31.08.2015 17:36 29,0 C 32 % 1009,7 hPa 0,0 l/m 0,0 km/h (0 Bft) N 2 5 min 0,000 mm 1,0 UV-I 652 W/m 10,6 C 29,0 C 0,0 km/h (0 Bft) 0,00 %
31.08.2015 17:41 29,8 C 29 % 1009,7 hPa 0,0 l/m 0,0 km/h (0 Bft) N 3 5 min 0,000 mm 1,0 UV-I 630 W/m 9,8 C 29,8 C 0,0 km/h (0 Bft) 0,00 %
31.08.2015 17:46 30,7 C 28 % 1009,6 hPa 0,0 l/m 0,0 km/h (0 Bft) NO 34 5 min 0,000 mm 1,0 UV-I 608 W/m 10,1 C 30,7 C 0,0 km/h (0 Bft) 0,00 %
31.08.2015 17:51 31,4 C 27 % 1009,7 hPa 0,0 l/m 0,0 km/h (0 Bft) NO 48 5 min 0,000 mm 1,0 UV-I 575 W/m 10,1 C 31,4 C 0,0 km/h (0 Bft) 0,00 %
31.08.2015 17:56 31,8 C 27 % 1009,7 hPa 0,0 l/m 0,0 km/h (0 Bft) NO 42 5 min 0,000 mm 1,0 UV-I 558 W/m 10,5 C 31,8 C 0,0 km/h (0 Bft) 0,00 %
31.08.2015 18:01 32,0 C 27 % 1009,5 hPa 0,0 l/m 0,0 km/h (0 Bft) NO 51 5 min 0,000 mm 1,0 UV-I 540 W/m 10,6 C 32,0 C 0,0 km/h (0 Bft) 0,00 %
31.08.2015 18:06 32,3 C 26 % 1009,5 hPa 0,0 l/m 0,0 km/h (0 Bft) N-NO 13 5 min 0,000 mm 1,0 UV-I 517 W/m 10,3 C 32,3 C 0,0 km/h (0 Bft) 0,00 %
31.08.2015 18:11 32,7 C 25 % 1009,4 hPa 0,0 l/m 0,0 km/h (0 Bft) NO 37 5 min 0,000 mm 1,0 UV-I 494 W/m 10,1 C 32,7 C 0,0 km/h (0 Bft) 0,00 %
31.08.2015 18:16 33,0 C 25 % 1009,4 hPa 0,0 l/m 0,0 km/h (0 Bft) O-NO 69 5 min 0,000 mm 1,0 UV-I 467 W/m 10,3 C 33,0 C 0,0 km/h (0 Bft) 0,00 %
31.08.2015 18:21 33,0 C 25 % 1009,4 hPa 0,0 l/m 0,0 km/h (0 Bft) NO 36 5 min 0,000 mm 1,0 UV-I 436 W/m 10,3 C 33,0 C 0,0 km/h (0 Bft) 0,00 %
31.08.2015 18:26 33,0 C 24 % 1009,3 hPa 0,0 l/m 0,0 km/h (0 Bft) NO 53 5 min 0,000 mm 1,0 UV-I 404 W/m 9,7 C 33,0 C 0,0 km/h (0 Bft) 0,00 %
31.08.2015 18:31 33,0 C 25 % 1009,6 hPa 0,0 l/m 0,0 km/h (0 Bft) N-NO 24 5 min 0,000 mm 1,0 UV-I 374 W/m 10,3 C 33,0 C 0,0 km/h (0 Bft) 0,00 %
31.08.2015 18:36 33,0 C 23 % 1009,5 hPa 0,0 l/m 0,0 km/h (0 Bft) N-NO 33 5 min 0,000 mm 0,0 UV-I 358 W/m 9,1 C 33,0 C 0,0 km/h (0 Bft) 0,00 %
31.08.2015 18:41 33,1 C 24 % 1009,6 hPa 0,0 l/m 0,0 km/h (0 Bft) NO 42 5 min 0,000 mm 0,0 UV-I 329 W/m 9,8 C 33,1 C 0,0 km/h (0 Bft) 0,00 %
31.08.2015 18:46 33,0 C 24 % 1009,6 hPa 0,0 l/m 0,0 km/h (0 Bft) NO 42 5 min 0,000 mm 0,0 UV-I 293 W/m 9,7 C 33,0 C 0,0 km/h (0 Bft) 0,00 %
31.08.2015 18:51 32,9 C 25 % 1009,6 hPa 0,0 l/m 0,0 km/h (0 Bft) NO 45 5 min 0,000 mm 0,0 UV-I 264 W/m 10,2 C 32,9 C 0,0 km/h (0 Bft) 0,00 %
31.08.2015 18:56 32,8 C 24 % 1009,6 hPa 0,0 l/m 0,0 km/h (0 Bft) NO 39 5 min 0,000 mm 0,0 UV-I 230 W/m 9,5 C 32,8 C 0,0 km/h (0 Bft) 0,00 %
31.08.2015 19:01 32,8 C 24 % 1009,7 hPa 0,0 l/m 0,0 km/h (0 Bft) NO 42 5 min 0,000 mm 0,0 UV-I 197 W/m 9,5 C 32,8 C 0,0 km/h (0 Bft) 0,00 %
31.08.2015 19:06 32,8 C 25 % 1009,7 hPa 0,0 l/m 0,0 km/h (0 Bft) NO 38 5 min 0,000 mm 0,0 UV-I 162 W/m 10,2 C 32,8 C 0,0 km/h (0 Bft) 0,00 %
31.08.2015 19:11 32,6 C 29 % 1009,4 hPa 0,0 l/m 0,0 km/h (0 Bft) NO 43 5 min 0,000 mm 0,0 UV-I 134 W/m 12,2 C 32,6 C 0,0 km/h (0 Bft) 0,00 %
31.08.2015 19:16 32,3 C 31 % 1009,5 hPa 0,0 l/m 0,0 km/h (0 Bft) NO 48 5 min 0,000 mm 0,0 UV-I 72 W/m 13,0 C 32,3 C 0,0 km/h (0 Bft) 0,00 %
31.08.2015 19:21 31,9 C 28 % 1009,6 hPa 0,0 l/m 0,0 km/h (0 Bft) NO 50 5 min 0,000 mm 0,0 UV-I 53 W/m 11,1 C 31,9 C 0,0 km/h (0 Bft) 0,00 %
31.08.2015 19:26 31,4 C 30 % 1009,7 hPa 0,0 l/m 0,0 km/h (0 Bft) NO 54 5 min 0,000 mm 0,0 UV-I 38 W/m 11,7 C 31,4 C 0,0 km/h (0 Bft) 0,00 %
31.08.2015 19:31 30,9 C 31 % 1009,8 hPa 0,0 l/m 0,0 km/h (0 Bft) NO 50 5 min 0,000 mm 0,0 UV-I 28 W/m 11,8 C 30,9 C 0,0 km/h (0 Bft) 0,00 %
31.08.2015 19:36 30,4 C 34 % 1010,0 hPa 0,0 l/m 0,0 km/h (0 Bft) O-NO 69 5 min 0,000 mm 0,0 UV-I 20 W/m 12,7 C 30,4 C 0,0 km/h (0 Bft) 0,00 %
31.08.2015 19:41 29,9 C 33 % 1009,8 hPa 0,0 l/m 0,0 km/h (0 Bft) NO 49 0 min 0,000 mm 0,0 UV-I 8 W/m 11,9 C 29,9 C 0,0 km/h (0 Bft) 0,00 %
31.08.2015 19:46 29,4 C 33 % 1009,8 hPa 0,0 l/m 0,0 km/h (0 Bft) NO 49 0 min 0,000 mm 0,0 UV-I 3 W/m 11,4 C 29,4 C 0,0 km/h (0 Bft) 0,00 %
31.08.2015 19:51 29,0 C 37 % 1009,6 hPa 0,0 l/m 0,0 km/h (0 Bft) NO 45 0 min 0,000 mm 0,0 UV-I 0 W/m 12,8 C 29,0 C 0,0 km/h (0 Bft) 0,00 %
31.08.2015 19:56 28,5 C 39 % 1009,8 hPa 0,0 l/m 0,0 km/h (0 Bft) O-NO 58 0 min 0,000 mm 0,0 UV-I 0 W/m 13,2 C 28,5 C 0,0 km/h (0 Bft) 0,00 %
31.08.2015 20:01 28,0 C 42 % 1009,6 hPa 0,0 l/m 0,0 km/h (0 Bft) NO 55 0 min 0,000 mm 0,0 UV-I 0 W/m 13,9 C 28,0 C 0,0 km/h (0 Bft) 0,00 %
31.08.2015 20:06 27,4 C 40 % 1009,8 hPa 0,0 l/m 0,0 km/h (0 Bft) O-NO 60 0 min 0,000 mm 0,0 UV-I 0 W/m 12,6 C 27,4 C 0,0 km/h (0 Bft) 0,00 %
31.08.2015 20:11 27,0 C 39 % 1010,0 hPa 0,0 l/m 0,0 km/h (0 Bft) O-NO 78 0 min 0,000 mm 0,0 UV-I 0 W/m 11,8 C 27,0 C 0,0 km/h (0 Bft) 0,00 %
31.08.2015 20:16 26,8 C 39 % 1010,0 hPa 0,0 l/m 0,0 km/h (0 Bft) NO 45 0 min 0,000 mm 0,0 UV-I 0 W/m 11,7 C 26,8 C 0,0 km/h (0 Bft) 0,00 %
31.08.2015 20:21 26,7 C 40 % 1009,9 hPa 0,0 l/m 0,0 km/h (0 Bft) NO 48 0 min 0,000 mm 0,0 UV-I 0 W/m 12,0 C 26,7 C 0,0 km/h (0 Bft) 0,00 %
31.08.2015 20:26 26,5 C 40 % 1010,1 hPa 0,0 l/m 0,0 km/h (0 Bft) O-NO 57 0 min 0,000 mm 0,0 UV-I 0 W/m 11,8 C 26,5 C 0,0 km/h (0 Bft) 0,00 %
31.08.2015 20:31 26,2 C 41 % 1009,9 hPa 0,0 l/m 0,0 km/h (0 Bft) NO 48 0 min 0,000 mm 0,0 UV-I 0 W/m 11,9 C 26,2 C 0,0 km/h (0 Bft) 0,00 %
31.08.2015 20:36 25,9 C 42 % 1010,0 hPa 0,0 l/m 0,0 km/h (0 Bft) NO 55 0 min 0,000 mm 0,0 UV-I 0 W/m 12,0 C 25,9 C 0,0 km/h (0 Bft) 0,00 %
31.08.2015 20:41 25,6 C 42 % 1010,2 hPa 0,0 l/m 0,0 km/h (0 Bft) NO 50 0 min 0,000 mm 0,0 UV-I 0 W/m 11,7 C 25,6 C 0,0 km/h (0 Bft) 0,00 %
31.08.2015 20:46 25,4 C 41 % 1010,0 hPa 0,0 l/m 0,0 km/h (0 Bft) NO 45 0 min 0,000 mm 0,0 UV-I 0 W/m 11,2 C 25,4 C 0,0 km/h (0 Bft) 0,00 %
31.08.2015 20:51 25,3 C 41 % 1010,0 hPa 0,0 l/m 0,0 km/h (0 Bft) NO 43 0 min 0,000 mm 0,0 UV-I 0 W/m 11,1 C 25,3 C 0,0 km/h (0 Bft) 0,00 %
31.08.2015 20:56 25,2 C 42 % 1009,9 hPa 0,0 l/m 0,0 km/h (0 Bft) NO 49 0 min 0,000 mm 0,0 UV-I 0 W/m 11,4 C 25,2 C 0,0 km/h (0 Bft) 0,00 %
31.08.2015 21:01 25,0 C 46 % 1010,0 hPa 0,0 l/m 0,0 km/h (0 Bft) O-NO 58 0 min 0,000 mm 0,0 UV-I 0 W/m 12,6 C 25,0 C 0,0 km/h (0 Bft) 0,00 %
31.08.2015 21:06 24,8 C 44 % 1010,0 hPa 0,0 l/m 0,0 km/h (0 Bft) NO 49 0 min 0,000 mm 0,0 UV-I 0 W/m 11,7 C 24,8 C 0,0 km/h (0 Bft) 0,00 %
31.08.2015 21:11 24,7 C 46 % 1010,2 hPa 0,0 l/m 0,0 km/h (0 Bft) NO 54 0 min 0,000 mm 0,0 UV-I 0 W/m 12,3 C 24,7 C 0,0 km/h (0 Bft) 0,00 %
31.08.2015 21:16 24,4 C 47 % 1010,0 hPa 0,0 l/m 0,0 km/h (0 Bft) NO 48 0 min 0,000 mm 0,0 UV-I 0 W/m 12,3 C 24,4 C 0,0 km/h (0 Bft) 0,00 %
31.08.2015 21:21 24,2 C 50 % 1010,0 hPa 0,0 l/m 0,0 km/h (0 Bft) NO 47 0 min 0,000 mm 0,0 UV-I 0 W/m 13,1 C 24,2 C 0,0 km/h (0 Bft) 0,00 %
31.08.2015 21:26 24,0 C 51 % 1010,1 hPa 0,0 l/m 0,0 km/h (0 Bft) NO 53 0 min 0,000 mm 0,0 UV-I 0 W/m 13,2 C 24,0 C 0,0 km/h (0 Bft) 0,00 %
31.08.2015 21:31 23,8 C 51 % 1010,2 hPa 0,0 l/m 0,0 km/h (0 Bft) NO 46 0 min 0,000 mm 0,0 UV-I 0 W/m 13,0 C 23,8 C 0,0 km/h (0 Bft) 0,00 %
31.08.2015 21:36 23,7 C 51 % 1010,1 hPa 0,0 l/m 0,0 km/h (0 Bft) NO 51 0 min 0,000 mm 0,0 UV-I 0 W/m 13,0 C 23,7 C 0,0 km/h (0 Bft) 0,00 %
31.08.2015 21:41 23,7 C 52 % 1010,3 hPa 0,0 l/m 0,0 km/h (0 Bft) NO 43 0 min 0,000 mm 0,0 UV-I 0 W/m 13,2 C 23,7 C 0,0 km/h (0 Bft) 0,00 %
31.08.2015 21:46 23,8 C 52 % 1010,1 hPa 0,0 l/m 0,0 km/h (0 Bft) NO 47 0 min 0,000 mm 0,0 UV-I 0 W/m 13,3 C 23,8 C 0,0 km/h (0 Bft) 0,00 %
31.08.2015 21:51 23,7 C 53 % 1010,2 hPa 0,0 l/m 0,0 km/h (0 Bft) NO 43 0 min 0,000 mm 0,0 UV-I 0 W/m 13,5 C 23,7 C 0,0 km/h (0 Bft) 0,00 %
31.08.2015 21:56 23,7 C 53 % 1010,3 hPa 0,0 l/m 0,0 km/h (0 Bft) NO 46 0 min 0,000 mm 0,0 UV-I 0 W/m 13,5 C 23,7 C 0,0 km/h (0 Bft) 0,00 %
31.08.2015 22:01 23,6 C 53 % 1010,3 hPa 0,0 l/m 0,0 km/h (0 Bft) NO 48 0 min 0,000 mm 0,0 UV-I 0 W/m 13,4 C 23,6 C 0,0 km/h (0 Bft) 0,00 %
31.08.2015 22:06 23,5 C 53 % 1010,4 hPa 0,0 l/m 0,0 km/h (0 Bft) NO 52 0 min 0,000 mm 0,0 UV-I 0 W/m 13,4 C 23,5 C 0,0 km/h (0 Bft) 0,00 %
31.08.2015 22:11 23,4 C 54 % 1010,5 hPa 0,0 l/m 0,0 km/h (0 Bft) N 355 0 min 0,000 mm 0,0 UV-I 0 W/m 13,6 C 23,4 C 0,0 km/h (0 Bft) 0,00 %
31.08.2015 22:16 23,3 C 53 % 1010,4 hPa 0,0 l/m 0,0 km/h (0 Bft) O-NO 58 0 min 0,000 mm 0,0 UV-I 0 W/m 13,2 C 23,3 C 0,0 km/h (0 Bft) 0,00 %
31.08.2015 22:21 23,3 C 53 % 1010,3 hPa 0,0 l/m 0,0 km/h (0 Bft) NO 43 0 min 0,000 mm 0,0 UV-I 0 W/m 13,2 C 23,3 C 0,0 km/h (0 Bft) 0,00 %
31.08.2015 22:26 23,3 C 53 % 1010,4 hPa 0,0 l/m 0,0 km/h (0 Bft) NO 42 0 min 0,000 mm 0,0 UV-I 0 W/m 13,2 C 23,3 C 0,0 km/h (0 Bft) 0,00 %
31.08.2015 22:31 23,3 C 54 % 1010,3 hPa 0,0 l/m 0,0 km/h (0 Bft) NO 38 0 min 0,000 mm 0,0 UV-I 0 W/m 13,5 C 23,3 C 0,0 km/h (0 Bft) 0,00 %
31.08.2015 22:36 23,3 C 54 % 1010,5 hPa 0,0 l/m 0,0 km/h (0 Bft) NO 51 0 min 0,000 mm 0,0 UV-I 0 W/m 13,5 C 23,3 C 0,0 km/h (0 Bft) 0,00 %
31.08.2015 22:41 23,3 C 54 % 1010,4 hPa 0,0 l/m 0,0 km/h (0 Bft) N 350 0 min 0,000 mm 0,0 UV-I 0 W/m 13,5 C 23,3 C 0,0 km/h (0 Bft) 0,00 %
31.08.2015 22:46 23,2 C 54 % 1010,6 hPa 0,0 l/m 0,0 km/h (0 Bft) NO 36 0 min 0,000 mm 0,0 UV-I 0 W/m 13,4 C 23,2 C 0,0 km/h (0 Bft) 0,00 %
31.08.2015 22:51 23,1 C 55 % 1010,6 hPa 0,0 l/m 0,0 km/h (0 Bft) NO 34 0 min 0,000 mm 0,0 UV-I 0 W/m 13,6 C 23,1 C 0,0 km/h (0 Bft) 0,00 %
31.08.2015 22:56 23,1 C 55 % 1010,5 hPa 0,0 l/m 0,0 km/h (0 Bft) NO 37 0 min 0,000 mm 0,0 UV-I 0 W/m 13,6 C 23,1 C 0,0 km/h (0 Bft) 0,00 %
31.08.2015 23:01 23,1 C 55 % 1010,5 hPa 0,0 l/m 0,0 km/h (0 Bft) N-NO 28 0 min 0,000 mm 0,0 UV-I 0 W/m 13,6 C 23,1 C 0,0 km/h (0 Bft) 0,00 %
31.08.2015 23:06 23,1 C 55 % 1010,6 hPa 0,0 l/m 1,8 km/h (1 Bft) SW 230 0 min 0,000 mm 0,0 UV-I 0 W/m 13,6 C 23,1 C 4,0 km/h (1 Bft) 0,00 %
31.08.2015 23:11 23,1 C 55 % 1010,8 hPa 0,0 l/m 0,4 km/h (0 Bft) N 350 0 min 0,000 mm 0,0 UV-I 0 W/m 13,6 C 23,1 C 4,0 km/h (1 Bft) 0,00 %
31.08.2015 23:16 23,1 C 56 % 1010,7 hPa 0,0 l/m 1,8 km/h (1 Bft) N-NW 341 0 min 0,000 mm 0,0 UV-I 0 W/m 13,8 C 23,1 C 4,0 km/h (1 Bft) 0,00 %
31.08.2015 23:21 23,0 C 56 % 1010,7 hPa 0,0 l/m 0,0 km/h (0 Bft) NO 43 0 min 0,000 mm 0,0 UV-I 0 W/m 13,7 C 23,0 C 0,0 km/h (0 Bft) 0,00 %
31.08.2015 23:26 23,0 C 57 % 1011,0 hPa 0,0 l/m 0,0 km/h (0 Bft) N 354 0 min 0,000 mm 0,0 UV-I 0 W/m 14,0 C 23,0 C 0,0 km/h (0 Bft) 0,00 %
31.08.2015 23:31 23,0 C 57 % 1010,8 hPa 0,0 l/m 0,4 km/h (0 Bft) NO 40 0 min 0,000 mm 0,0 UV-I 0 W/m 14,0 C 23,0 C 4,0 km/h (1 Bft) 0,00 %
31.08.2015 23:36 23,0 C 57 % 1011,0 hPa 0,0 l/m 0,0 km/h (0 Bft) N 8 0 min 0,000 mm 0,0 UV-I 0 W/m 14,0 C 23,0 C 0,0 km/h (0 Bft) 0,00 %
31.08.2015 23:41 23,0 C 57 % 1010,9 hPa 0,0 l/m 0,0 km/h (0 Bft) N 351 0 min 0,000 mm 0,0 UV-I 0 W/m 14,0 C 23,0 C 0,0 km/h (0 Bft) 0,00 %
31.08.2015 23:46 22,9 C 58 % 1011,0 hPa 0,0 l/m 0,0 km/h (0 Bft) NO 53 0 min 0,000 mm 0,0 UV-I 0 W/m 14,2 C 22,9 C 0,0 km/h (0 Bft) 0,00 %
31.08.2015 23:51 22,8 C 59 % 1011,0 hPa 0,0 l/m 0,0 km/h (0 Bft) N-NW 337 0 min 0,000 mm 0,0 UV-I 0 W/m 14,4 C 22,8 C 0,0 km/h (0 Bft) 0,00 %
31.08.2015 23:56 22,8 C 59 % 1011,0 hPa 0,0 l/m 0,0 km/h (0 Bft) NO 37 0 min 0,000 mm 0,0 UV-I 0 W/m 14,4 C 22,8 C 0,0 km/h (0 Bft) 0,00 %
_ Min-Zeit 06:15 16:31 18:26 - 00:00 - - - - - - 16:31 06:15 00:00 00:00
Minimum _ 15,2 C 21 % 1009,3 hPa - 0,0 km/h (0 Bft) - - - - - - 7,8 C 15,2 C 0,0 km/h (0 Bft) 0,00 %
_ Max-Zeit 15:16 06:00 00:45 00:00 16:41 - - 14:16 00:00 11:35 14:31 16:51 15:16 11:35 00:00
Maximum _ 35,5 C 90 % 1016,3 hPa 0,0 l/m 5,8 km/h
O-SO (2 Bft)
- - 6 min 0,000 mm 3,0 UV-I 874 W/m 18,3 C 35,5 C 7,9 km/h
NW (2 Bft)
0,00 %
Durchschnitt _ 25,5 C 53 % 1013,3 hPa #0,0 l/m 0,2 km/h (0 Bft) N-NW - #10:06 h #0,000 mm 1,7 UV-I 457 W/m 13,6 C 25,5 C 0,6 km/h (0 Bft) 0,00 %